Weather in Shapshi

Russia / Republic of Tatarstan     55°57′05″N   49°29′51″E
temp.,
°C
wind,
m/s
gust,
m/s
humid.,
%
clouds,
%
prec.,
mm/h
press.,
hPa
HPBL,
m
18 august, thu
thu1800:00+15e346275 0.0 102357
03:00+14ene336311 0.0 102432
06:00+15ene36625 0.0 1024153
09:00+22ene45455 0.0 1024643
12:00+25ene55444 0.0 10241570
15:00+25ene66433 0.0 10231847
18:00+21ene59470 0.0 1025449
21:00+14e410510 0.0 1026161
19 august, fri
fri1900:00+13e413600 0.0 1028257
03:00+10e410630 0.0 1030167
06:00+12e512550 0.0 1031346
09:00+18ese710400 0.0 1032943
12:00+22e68320 0.0 10321322
15:00+22ese56300 0.0 10321412
18:00+19ese34470 0.0 103272
21:00+13ese22580 0.0 103311
20 august, sat
sat2000:00+12e22640 0.0 103311
03:00+11e22690 0.0 103410
06:00+13ene12630 0.0 103455
09:00+20ene22430 0.0 1033567
12:00+24ne22350 0.0 10321354
15:00+25ne22340 0.0 10311476
18:00+22ene22480 0.0 103022
21:00+17ne22610 0.0 103111
21 august, sun
sun2100:00+15nne22670 0.0 103113
03:00+14ne22740 0.0 103111
06:00+16ne24750 0.0 1031102
09:00+23ne33520 0.0 1030518
12:00+27ene33400 0.0 10291756
15:00+28ene44360 0.0 10282293
18:00+24ene225112 0.0 102827
21:00+21ene366264 0.0 1028102
22 august, mon
mon2200:00+21ne3562100 0.0 1028112
03:00+20ne3465100 0.0 102891
06:00+20ene3568100 0.0 1029152
09:00+24e355737 0.0 1030496
12:00+29e453868 0.0 10292355
15:00+27ene4642100 0.0 1028706
18:00+25e364938 0.0 1028147
21:00+22e235665 0.0 102958